timestamp,wind_dir_avg,wind_spd_max_dir,wind_spd_avg,wind_spd_gust,battery_voltage,lat,long
2017-09-12 00:00:00+00:00,61.0,61.0,18.14,21.11,12.6,47.59359,-54.27349
2017-09-12 00:10:00+00:00,69.0,71.0,16.36,19.04,12.6,47.59359,-54.27349
2017-09-12 00:20:00+00:00,72.0,75.0,14.51,16.95,12.6,47.59359,-54.27349
2017-09-12 00:30:00+00:00,72.0,73.0,14.64,17.55,12.6,47.59359,-54.27349
2017-09-12 00:40:00+00:00,66.0,73.0,15.96,19.61,12.6,47.59359,-54.27349
2017-09-12 00:50:00+00:00,65.0,65.0,15.36,18.48,12.6,47.59359,-54.27349
2017-09-12 01:00:00+00:00,60.0,54.0,16.64,20.63,12.6,47.59359,-54.27349
2017-09-12 01:10:00+00:00,67.0,66.0,16.58,19.07,12.6,47.59359,-54.27349
2017-09-12 01:20:00+00:00,65.0,60.0,16.28,19.47,12.6,47.59359,-54.27349
2017-09-12 01:30:00+00:00,63.0,60.0,16.49,19.57,12.6,47.59359,-54.27349
2017-09-12 01:40:00+00:00,64.0,61.0,14.72,18.17,12.6,47.59359,-54.27349
2017-09-12 01:50:00+00:00,70.0,72.0,16.2,18.83,12.6,47.59359,-54.27349
2017-09-12 02:00:00+00:00,69.0,71.0,15.99,18.88,12.6,47.59359,-54.27349
2017-09-12 02:10:00+00:00,70.0,68.0,13.83,17.24,12.5,47.59359,-54.27349
2017-09-12 02:20:00+00:00,72.0,69.0,13.2,15.58,12.6,47.59359,-54.27349
2017-09-12 02:30:00+00:00,74.0,76.0,14.23,17.26,12.6,47.59359,-54.27349
2017-09-12 02:40:00+00:00,78.0,85.0,12.88,18.29,12.6,47.59359,-54.27349
2017-09-12 02:50:00+00:00,81.0,79.0,12.84,14.77,12.6,47.59359,-54.27349
2017-09-12 03:00:00+00:00,82.0,88.0,11.41,14.23,12.6,47.59359,-54.27349
2017-09-12 03:10:00+00:00,75.0,74.0,11.35,14.07,12.5,47.59359,-54.27349
2017-09-12 03:20:00+00:00,76.0,72.0,11.49,13.67,12.6,47.59359,-54.27349
2017-09-12 03:30:00+00:00,71.0,64.0,12.65,15.2,12.6,47.59359,-54.27349
2017-09-12 03:40:00+00:00,70.0,69.0,13.27,15.02,12.6,47.59359,-54.27349
2017-09-12 03:50:00+00:00,68.0,67.0,12.46,14.26,12.6,47.59359,-54.27349
2017-09-12 04:00:00+00:00,71.0,71.0,13.93,17.36,12.6,47.59359,-54.27349
2017-09-12 04:10:00+00:00,68.0,70.0,13.13,15.1,12.5,47.59359,-54.27349
2017-09-12 04:20:00+00:00,65.0,64.0,13.13,14.71,12.6,47.59359,-54.27349
2017-09-12 04:30:00+00:00,67.0,65.0,12.58,14.2,12.6,47.59359,-54.27349
2017-09-12 04:40:00+00:00,71.0,67.0,10.92,12.5,12.6,47.59359,-54.27349
2017-09-12 04:50:00+00:00,70.0,73.0,11.46,13.37,12.6,47.59359,-54.27349
2017-09-12 05:00:00+00:00,69.0,79.0,11.0,13.44,12.6,47.59359,-54.27349
2017-09-12 05:10:00+00:00,69.0,67.0,11.19,13.23,12.5,47.59359,-54.27349
2017-09-12 05:20:00+00:00,67.0,61.0,12.31,14.58,12.6,47.59359,-54.27349
2017-09-12 05:30:00+00:00,69.0,69.0,12.09,14.38,12.6,47.59359,-54.27349
2017-09-12 05:40:00+00:00,64.0,60.0,12.99,14.25,12.6,47.59359,-54.27349
2017-09-12 05:50:00+00:00,72.0,70.0,11.31,13.06,12.6,47.59359,-54.27349
2017-09-12 06:00:00+00:00,69.0,64.0,10.92,12.85,12.6,47.59359,-54.27349
2017-09-12 06:10:00+00:00,71.0,76.0,11.11,14.61,12.5,47.59359,-54.27349
2017-09-12 06:20:00+00:00,67.0,62.0,11.06,12.38,12.6,47.59359,-54.27349
2017-09-12 06:30:00+00:00,65.0,70.0,11.88,13.65,12.6,47.59359,-54.27349
2017-09-12 06:40:00+00:00,60.0,56.0,11.03,13.22,12.6,47.59359,-54.27349
2017-09-12 06:50:00+00:00,65.0,67.0,12.18,14.44,12.6,47.59359,-54.27349
2017-09-12 07:00:00+00:00,65.0,66.0,12.15,13.94,12.6,47.59359,-54.27349
2017-09-12 07:10:00+00:00,60.0,57.0,12.02,13.09,12.5,47.59359,-54.27349
2017-09-12 07:20:00+00:00,61.0,63.0,10.79,12.38,12.6,47.59359,-54.27349
2017-09-12 07:30:00+00:00,62.0,60.0,11.1,13.36,12.6,47.59359,-54.27349
2017-09-12 07:40:00+00:00,65.0,67.0,11.07,13.19,12.6,47.59359,-54.27349
2017-09-12 07:50:00+00:00,61.0,62.0,11.23,12.72,12.6,47.59359,-54.27349
2017-09-12 08:00:00+00:00,61.0,64.0,10.91,12.24,12.6,47.59359,-54.27349
2017-09-12 08:10:00+00:00,62.0,64.0,10.34,11.48,12.5,47.59359,-54.27349
2017-09-12 08:20:00+00:00,59.0,62.0,10.53,12.98,12.6,47.59359,-54.27349
2017-09-12 08:30:00+00:00,63.0,64.0,9.68,11.5,12.6,47.59359,-54.27349
2017-09-12 08:40:00+00:00,59.0,62.0,9.68,11.21,12.6,47.59359,-54.27349
2017-09-12 08:50:00+00:00,57.0,57.0,10.02,11.58,12.6,47.59359,-54.27349
2017-09-12 09:00:00+00:00,55.0,53.0,10.29,11.98,12.6,47.59359,-54.27349
2017-09-12 09:10:00+00:00,57.0,56.0,10.32,11.73,12.5,47.59359,-54.27349
2017-09-12 09:20:00+00:00,54.0,48.0,9.48,11.19,12.6,47.59359,-54.27349
2017-09-12 09:30:00+00:00,53.0,49.0,12.09,13.17,12.6,47.59359,-54.27349
2017-09-12 09:40:00+00:00,57.0,61.0,10.09,12.01,12.6,47.59359,-54.27349
2017-09-12 09:50:00+00:00,56.0,60.0,9.72,11.55,12.6,47.59359,-54.27349
2017-09-12 10:00:00+00:00,54.0,51.0,10.78,12.9,12.6,47.59359,-54.27349
2017-09-12 10:10:00+00:00,57.0,55.0,10.71,12.42,12.5,47.59359,-54.27349
2017-09-12 10:20:00+00:00,56.0,58.0,10.12,11.38,12.6,47.59359,-54.27349
2017-09-12 10:30:00+00:00,57.0,55.0,10.2,12.25,12.6,47.59359,-54.27349
2017-09-12 10:40:00+00:00,52.0,54.0,9.41,11.13,12.6,47.59359,-54.27349
2017-09-12 10:50:00+00:00,53.0,51.0,10.25,11.65,12.6,47.59359,-54.27349
2017-09-12 11:00:00+00:00,50.0,45.0,10.04,11.62,12.6,47.59359,-54.27349
2017-09-12 11:10:00+00:00,48.0,46.0,9.71,10.95,12.6,47.59359,-54.27349
2017-09-12 11:20:00+00:00,57.0,55.0,9.35,10.58,12.7,47.59359,-54.27349
2017-09-12 11:30:00+00:00,58.0,58.0,8.27,9.2,12.8,47.59359,-54.27349
2017-09-12 11:40:00+00:00,55.0,54.0,8.83,10.04,12.9,47.59359,-54.27349
2017-09-12 11:50:00+00:00,60.0,64.0,9.68,10.77,12.9,47.59359,-54.27349
2017-09-12 12:00:00+00:00,58.0,54.0,8.81,10.34,12.9,47.59359,-54.27349
2017-09-12 12:10:00+00:00,56.0,56.0,8.14,9.13,12.8,47.59359,-54.27349
2017-09-12 12:20:00+00:00,55.0,51.0,7.54,8.66,12.9,47.59359,-54.27349
2017-09-12 12:30:00+00:00,56.0,54.0,8.65,9.5,12.9,47.59359,-54.27349
2017-09-12 12:40:00+00:00,55.0,60.0,9.02,10.24,13.1,47.59359,-54.27349
2017-09-12 12:50:00+00:00,52.0,54.0,9.15,10.02,13.4,47.59359,-54.27349
2017-09-12 13:00:00+00:00,51.0,50.0,8.29,9.39,13.4,47.59359,-54.27349
2017-09-12 13:10:00+00:00,54.0,53.0,7.86,9.47,13.4,47.59359,-54.27349
2017-09-12 13:20:00+00:00,56.0,60.0,8.63,9.62,13.7,47.59359,-54.27349
2017-09-12 13:30:00+00:00,56.0,52.0,8.55,9.69,14.0,47.59359,-54.27349
2017-09-12 13:40:00+00:00,56.0,50.0,9.41,10.77,13.7,47.59359,-54.27349
2017-09-12 13:50:00+00:00,55.0,52.0,8.67,9.31,13.7,47.59359,-54.27349
2017-09-12 14:00:00+00:00,59.0,59.0,8.15,9.01,13.8,47.59359,-54.27349
2017-09-12 14:10:00+00:00,54.0,48.0,6.22,7.02,13.8,47.59359,-54.27349
2017-09-12 14:20:00+00:00,60.0,59.0,6.84,7.65,14.0,47.59359,-54.27349
2017-09-12 14:30:00+00:00,65.0,66.0,6.6,7.44,14.1,47.59359,-54.27349
2017-09-12 14:40:00+00:00,64.0,65.0,7.65,8.97,14.2,47.59359,-54.27349
2017-09-12 14:50:00+00:00,64.0,65.0,7.45,8.52,13.7,47.59359,-54.27349
2017-09-12 15:00:00+00:00,59.0,57.0,7.55,8.21,13.8,47.59359,-54.27349
2017-09-12 15:10:00+00:00,60.0,63.0,6.52,7.56,13.8,47.59359,-54.27349
2017-09-12 15:20:00+00:00,60.0,66.0,5.48,6.15,13.8,47.59359,-54.27349
2017-09-12 15:30:00+00:00,56.0,56.0,5.97,6.63,13.7,47.59359,-54.27349
2017-09-12 15:40:00+00:00,60.0,55.0,6.25,7.46,13.7,47.59359,-54.27349
2017-09-12 15:50:00+00:00,56.0,48.0,6.62,7.81,13.7,47.59359,-54.27349
2017-09-12 16:00:00+00:00,60.0,64.0,6.42,7.27,13.7,47.59359,-54.27349
2017-09-12 16:10:00+00:00,59.0,60.0,6.11,6.88,14.3,47.59359,-54.27349
2017-09-12 16:20:00+00:00,61.0,64.0,5.71,6.38,13.7,47.59359,-54.27349
2017-09-12 16:30:00+00:00,62.0,63.0,5.19,6.14,14.1,47.59359,-54.27349
2017-09-12 16:40:00+00:00,59.0,56.0,4.93,5.39,14.2,47.59359,-54.27349
2017-09-12 16:50:00+00:00,62.0,59.0,4.43,5.15,14.1,47.59359,-54.27349
2017-09-12 17:00:00+00:00,58.0,60.0,4.99,5.46,14.0,47.59359,-54.27349
2017-09-12 17:10:00+00:00,63.0,60.0,4.62,5.01,13.8,47.59359,-54.27349
2017-09-12 17:20:00+00:00,56.0,56.0,4.93,5.28,13.9,47.59359,-54.27349
2017-09-12 17:30:00+00:00,57.0,55.0,4.1,4.83,13.7,47.59359,-54.27349
2017-09-12 17:40:00+00:00,51.0,50.0,4.69,5.21,14.2,47.59359,-54.27349
2017-09-12 17:50:00+00:00,47.0,46.0,5.31,5.87,14.3,47.59359,-54.27349
2017-09-12 18:00:00+00:00,46.0,45.0,5.17,5.83,13.7,47.59359,-54.27349
2017-09-12 18:10:00+00:00,50.0,54.0,5.48,6.47,13.9,47.59359,-54.27349
2017-09-12 18:20:00+00:00,48.0,50.0,5.43,6.34,13.7,47.59359,-54.27349
2017-09-12 18:30:00+00:00,62.0,54.0,4.1,5.55,14.2,47.59359,-54.27349
2017-09-12 18:40:00+00:00,49.0,56.0,4.83,6.12,13.7,47.59359,-54.27349
2017-09-12 18:50:00+00:00,56.0,57.0,4.79,5.24,13.6,47.59359,-54.27349
2017-09-12 19:00:00+00:00,71.0,73.0,3.88,4.58,13.9,47.59359,-54.27349
2017-09-12 19:10:00+00:00,53.0,51.0,5.27,5.76,13.9,47.59359,-54.27349
2017-09-12 19:20:00+00:00,60.0,57.0,4.72,5.4,14.0,47.59359,-54.27349
2017-09-12 19:30:00+00:00,61.0,54.0,3.92,4.65,14.0,47.59359,-54.27349
2017-09-12 19:40:00+00:00,62.0,60.0,3.87,4.17,13.9,47.59359,-54.27349
2017-09-12 19:50:00+00:00,59.0,67.0,4.06,5.51,13.8,47.59359,-54.27349
2017-09-12 20:00:00+00:00,83.0,83.0,4.18,4.75,13.8,47.59359,-54.27349
2017-09-12 20:10:00+00:00,84.0,83.0,3.62,4.37,13.7,47.59359,-54.27349
2017-09-12 20:20:00+00:00,84.0,88.0,4.52,5.79,13.8,47.59359,-54.27349
2017-09-12 20:30:00+00:00,74.0,72.0,4.1,4.63,13.8,47.59359,-54.27349
2017-09-12 20:40:00+00:00,64.0,62.0,3.02,3.35,13.8,47.59359,-54.27349
2017-09-12 20:50:00+00:00,62.0,69.0,3.42,3.89,13.7,47.59359,-54.27349
2017-09-12 21:00:00+00:00,70.0,71.0,3.41,3.84,13.6,47.59359,-54.27349
2017-09-12 21:10:00+00:00,55.0,55.0,3.93,4.15,13.4,47.59359,-54.27349
2017-09-12 21:20:00+00:00,56.0,57.0,2.82,3.53,13.4,47.59359,-54.27349
2017-09-12 21:30:00+00:00,43.0,44.0,3.94,4.16,13.4,47.59359,-54.27349
2017-09-12 21:40:00+00:00,47.0,47.0,3.83,4.36,13.3,47.59359,-54.27349
2017-09-12 21:50:00+00:00,51.0,50.0,5.78,6.57,13.2,47.59359,-54.27349
2017-09-12 22:00:00+00:00,57.0,53.0,4.11,4.54,13.1,47.59359,-54.27349
2017-09-12 22:10:00+00:00,48.0,48.0,3.68,4.09,13.0,47.59359,-54.27349
2017-09-12 22:20:00+00:00,58.0,57.0,4.52,5.24,13.0,47.59359,-54.27349
2017-09-12 22:30:00+00:00,41.0,40.0,5.85,6.69,12.9,47.59359,-54.27349
2017-09-12 22:40:00+00:00,41.0,39.0,5.89,6.82,12.9,47.59359,-54.27349
2017-09-12 22:50:00+00:00,36.0,36.0,5.77,6.15,12.9,47.59359,-54.27349
2017-09-12 23:00:00+00:00,41.0,41.0,5.44,5.89,12.8,47.59359,-54.27349
2017-09-12 23:10:00+00:00,38.0,37.0,5.24,5.61,12.6,47.59359,-54.27349
2017-09-12 23:20:00+00:00,38.0,37.0,4.79,5.35,12.7,47.59359,-54.27349
2017-09-12 23:30:00+00:00,33.0,37.0,4.95,5.71,12.7,47.59359,-54.27349
2017-09-12 23:40:00+00:00,28.0,36.0,4.73,5.27,12.8,47.59359,-54.27349
2017-09-12 23:50:00+00:00,16.0,16.0,4.55,5.21,12.8,47.59359,-54.27349
